Weather in Sovetskoye Runo

Russia / Stavropol Krai     45°42′50″N   43°13′54″E
temp.,
°C
wind,
m/s
gust,
m/s
humid.,
%
clouds,
%
prec.,
mm/h
press.,
hPa
HPBL,
m
14 april, wed
wed1400:00+10ne3777100 0.0 1018126
03:00+8ese225688 0.0 101715
06:00+8sw2366100 0.0 101744
09:00+11w6780100 0.0 1017603
12:00+14w5570100 0.0 10171056
15:00+13w5569100 0.1 1018941
18:00+12wnw467990 0.0 1017409
21:00+9w4793100 0.0 1018173
15 april, thu
thu1500:00+8w3694100 0.0 1018138
03:00+7wnw3893100 0.0 1018159
06:00+7w369298 0.0 1018128
09:00+13wnw56651 0.0 1018565
12:00+17wnw56480 0.0 10171324
15:00+19nw55432 0.0 10161686
18:00+16nnw335868 0.0 101662
21:00+12wnw2267100 0.0 101711
16 april, fri
fri1600:00+11w227198 0.0 101711
03:00+10w11755 0.0 101710
06:00+10wsw1174100 0.0 101810
09:00+15n1158100 0.0 1018389
12:00+19ene224714 0.0 10181335
15:00+20e334391 0.0 10172078
18:00+18ene4755100 0.0 1016173
21:00+12wnw5794100 6.8 1019248
17 april, sat
sat1700:00+11nw5796100 3.6 1020337
03:00+10wnw589691 4.7 1020347
06:00+9wnw3793100 1.1 1022360
09:00+12nw3475100 1.5 1022793
12:00+16wnw345098 0.1 10221762
15:00+16wnw3447100 0.1 10211774
18:00+15wsw2255100 0.0 102264
21:00+12ssw3581100 0.0 1022150
18 april, sun
sun1800:00+10sw2287100 0.0 102227
03:00+10se228572 0.0 102119
06:00+10ese4785100 0.0 1021225
09:00+13se5674100 0.0 1021768
12:00+11se3586100 0.7 1021313
15:00+11ese3686100 0.9 1020365
18:00+10ene3595100 1.4 1021271
21:00+10e3697100 5.3 1020291